This is the latest recevied weather packets stored in our database for station/object IW3HBX-3. If no packets are shown the sender has not sent any weather packets the latest 10 day(s).
| Time | Temp. | Humidity | Pressure | Rain* | Wind** | Luminosity | Snow |
|---|---|---|---|---|---|---|---|
| 1777639824 | 20° C | 31% | 1027.1 hPa | 0 mm | - | 743 W/m² | - |
| 1777639525 | 20.56° C | 31% | 1027.1 hPa | 0 mm | - | 751 W/m² | - |
| 1777639225 | 21.11° C | 30% | 1027.1 hPa | 0 mm | - | 758 W/m² | - |
| 1777638925 | 20.56° C | 31% | 1027.2 hPa | 0 mm | - | 765 W/m² | - |
| 1777638625 | 20.56° C | 30% | 1027.3 hPa | 0 mm | - | 768 W/m² | - |
| 1777638326 | 20.56° C | 30% | 1027.2 hPa | 0 mm | - | 776 W/m² | - |
| 1777638026 | 21.11° C | 29% | 1027.4 hPa | 0 mm | - | 783 W/m² | - |
| 1777637726 | 21.11° C | 30% | 1027.4 hPa | 0 mm | - | 785 W/m² | - |
| 1777637426 | 20.56° C | 30% | 1027.4 hPa | 0 mm | - | 792 W/m² | - |
| 1777637126 | 19.44° C | 30% | 1027.4 hPa | 0 mm | - | 793 W/m² | - |
| 1777636827 | 18.89° C | 30% | 1027.5 hPa | 0 mm | - | 795 W/m² | - |
| 1777636527 | 18.89° C | 30% | 1027.5 hPa | 0 mm | - | 798 W/m² | - |
| 1777636227 | 18.89° C | 30% | 1027.6 hPa | 0 mm | - | 800 W/m² | - |
| 1777635927 | 18.89° C | 30% | 1027.6 hPa | 0 mm | - | 804 W/m² | - |
| 1777635628 | 18.89° C | 30% | 1027.7 hPa | 0 mm | - | 811 W/m² | - |
| 1777635328 | 19.44° C | 30% | 1027.7 hPa | 0 mm | - | 813 W/m² | - |
| 1777635028 | 19.44° C | 31% | 1027.8 hPa | 0 mm | - | 814 W/m² | - |
| 1777634729 | 20° C | 30% | 1027.8 hPa | 0 mm | - | 816 W/m² | - |
| 1777634129 | 18.33° C | 31% | 1028 hPa | 0 mm | - | 816 W/m² | - |
| 1777633829 | 17.78° C | 31% | 1028 hPa | 0 mm | - | 815 W/m² | - |
| 1777633530 | 19.44° C | 31% | 1028 hPa | 0 mm | - | 819 W/m² | - |
| 1777633230 | 18.89° C | 30% | 1028.2 hPa | 0 mm | - | 817 W/m² | - |
| 1777632930 | 18.89° C | 31% | 1028.2 hPa | 0 mm | - | 814 W/m² | - |
| 1777632330 | 19.44° C | 32% | 1028.4 hPa | 0 mm | - | 820 W/m² | - |
| 1777632031 | 19.44° C | 30% | 1028.4 hPa | 0 mm | - | 817 W/m² | - |
* Rain latest hour (hover to see other rain measurements)
** Current wind speed in m/s (hover to see current wind gust speed)